Spokane, WA

7:59 AM PDT on August 30, 2016 (GMT -0700)
Spokane International

Weather History for KGEG - March, 2013

Change the Weather History Date:

Wednesday, March 20, 2013

  Actual Average Record
Temperature  
Mean Temperature 43 °F 42 °F  
Max Temperature 52 °F 50 °F 70 °F (1999)
Min Temperature 33 °F 33 °F 12 °F (1913)
Degree Days  
Heating Degree Days 22 23  
Month to date heating degree days 481 525  
Since 1 July heating degree days 5018 5354  
Cooling Degree Days 0 0  
Month to date cooling degree days 0 0  
Year to date cooling degree days 0 0  
Moisture  
Dew Point 38 °F    
Average Humidity 77    
Maximum Humidity 93    
Minimum Humidity 60    
Precipitation  
Precipitation 0.40 in 0.05 in 0.40 in (2013)
Month to date precipitation 0.81 1.05  
Year to date precipitation 3.18 4.17  
Snow  
Snow T in 0.10 in 4.20 in (2002)
Month to date snowfall 0.9 2.4  
Since 1 July snowfall 43.5 42.7  
Snow Depth 0.00 in    
Sea Level Pressure  
Sea Level Pressure 29.61 in    
Wind  
Wind Speed 18 mph (SSW)    
Max Wind Speed 37 mph    
Max Gust Speed 46 mph    
Visibility 9 miles    
Events Rain    
T = Trace of Precipitation, MM = Missing Value Source: NWS Daily Summary

Daily Weather History Graph

Daily Weather History Graph

Search for Another Location

Airport or City:

Trip Planner

Search our weather history database for the weather conditions in past years. The results will help you decide how hot, cold, wet, or windy it might be!

Date:

Astronomy

Mar. 20, 2013 Rise Set
Actual Time 6:52 AM PDT 7:03 PM PDT
Civil Twilight 6:21 AM PDT 7:34 PM PDT
Nautical Twilight 5:45 AM PDT 8:10 PM PDT
Astronomical Twilight 5:08 AM PDT 8:47 PM PDT
Moon 12:20 PM PDT (3/20) 2:58 AM PDT (3/20)
Length of Visible Light 13h 12m
Length of Day
12h 11m
First Quarter, 60% of the Moon is Illuminated
Mar 20
First Quarter
Mar 27
Full
Apr 2
Last Quarter
Apr 10
New
Apr 18
First Quarter

Hourly Weather History & Observations

Time (PDT) Temp. Windchill Dew Point Humidity Pressure Visibility Wind Dir Wind Speed Gust Speed Precip Events Conditions
12:53 AM 42.1 °F 38.4 °F 33.1 °F 70% 29.80 in 8.0 mi SE 5.8 mph - 0.01 in Rain Light Rain
1:53 AM 41.0 °F 37.1 °F 37.0 °F 86% 29.75 in 10.0 mi ESE 5.8 mph - 0.03 in   Overcast
2:53 AM 42.1 °F 37.1 °F 37.0 °F 82% 29.74 in 9.0 mi South 8.1 mph - 0.00 in Rain Light Rain
3:53 AM 42.1 °F 36.6 °F 37.9 °F 85% 29.70 in 7.0 mi South 9.2 mph - 0.04 in Rain Light Rain
4:53 AM 41.0 °F 34.7 °F 39.9 °F 96% 29.67 in 7.0 mi SE 10.4 mph - 0.06 in Rain Light Rain
5:45 AM 41.0 °F 33.1 °F 39.2 °F 93% 29.63 in 7.0 mi SSE 15.0 mph - 0.03 in Rain Light Rain
5:53 AM 41.0 °F 32.8 °F 39.0 °F 93% 29.65 in 7.0 mi SSE 16.1 mph - 0.03 in Rain Light Rain
6:33 AM 42.8 °F 34.8 °F 39.2 °F 87% 29.61 in 10.0 mi SSE 17.3 mph 23.0 mph 0.00 in Rain Light Rain
6:53 AM 42.1 °F 33.9 °F 39.0 °F 89% 29.63 in 9.0 mi SSE 17.3 mph - 0.00 in Rain Light Rain
7:32 AM 42.8 °F 35.1 °F 39.2 °F 87% 29.60 in 7.0 mi SSE 16.1 mph - 0.02 in Rain Light Rain
7:53 AM 42.1 °F 33.9 °F 39.0 °F 89% 29.61 in 10.0 mi SSE 17.3 mph - 0.02 in Rain Light Rain
8:53 AM 43.0 °F 36.0 °F 39.9 °F 89% 29.60 in 10.0 mi SSE 13.8 mph 21.9 mph 0.02 in Rain Light Rain
9:53 AM 44.1 °F 36.8 °F 41.0 °F 89% 29.57 in 9.0 mi SSE 16.1 mph - 0.02 in Rain Light Rain
10:53 AM 46.9 °F - 43.0 °F 86% 29.55 in 9.0 mi SSE 13.8 mph 24.2 mph 0.00 in Rain Light Rain
11:53 AM 50.0 °F - 45.0 °F 83% 29.52 in 10.0 mi SSE 10.4 mph - 0.02 in Rain Light Rain
12:53 PM 48.0 °F - 45.0 °F 89% 29.51 in 3.0 mi SW 16.1 mph - 0.03 in Rain Rain
1:02 PM 48.2 °F - 44.6 °F 87% 29.51 in 2.0 mi SW 18.4 mph 24.2 mph 0.03 in Rain Rain
1:14 PM 46.4 °F 37.9 °F 42.8 °F 87% 29.49 in 3.0 mi SW 25.3 mph 31.1 mph 0.07 in Rain Light Rain
1:25 PM 48.2 °F - 42.8 °F 82% 29.48 in 8.0 mi SW 25.3 mph 34.5 mph 0.07 in Rain Light Rain
1:53 PM 48.9 °F - 42.1 °F 77% 29.49 in 10.0 mi SW 29.9 mph 38.0 mph 0.07 in   Mostly Cloudy
2:53 PM 46.9 °F - 41.0 °F 80% 29.52 in 10.0 mi SW 25.3 mph 33.4 mph 0.00 in   Overcast
3:53 PM 46.9 °F - 41.0 °F 80% 29.53 in 10.0 mi SSW 25.3 mph 31.1 mph N/A   Overcast
4:17 PM 46.4 °F 38.7 °F 41.0 °F 81% 29.52 in 10.0 mi SSW 20.7 mph 29.9 mph 0.00 in Rain Light Rain
4:30 PM 42.8 °F 32.7 °F 35.6 °F 76% 29.54 in 4.0 mi WSW 27.6 mph 46.0 mph 0.00 in Rain Heavy Ice Pellets
4:45 PM 42.8 °F 33.5 °F 37.4 °F 81% 29.53 in 7.0 mi SSW 23.0 mph 36.8 mph 0.07 in Rain Light Rain
4:53 PM 46.0 °F 37.2 °F 37.9 °F 73% 29.55 in 10.0 mi SW 26.5 mph 32.2 mph 0.07 in Rain Light Rain
5:53 PM 46.0 °F 38.8 °F 32.0 °F 58% 29.58 in 10.0 mi WSW 18.4 mph 29.9 mph 0.00 in Rain Light Rain
6:53 PM 43.0 °F 35.1 °F 32.0 °F 65% 29.61 in 10.0 mi SW 17.3 mph - 0.00 in   Scattered Clouds
7:53 PM 41.0 °F 31.4 °F 28.0 °F 60% 29.66 in 10.0 mi SW 21.9 mph - N/A   Scattered Clouds
8:53 PM 39.9 °F 29.7 °F 28.9 °F 65% 29.69 in 10.0 mi SW 23.0 mph 28.8 mph N/A   Scattered Clouds
9:53 PM 37.9 °F 27.3 °F 27.0 °F 65% 29.72 in 10.0 mi SW 21.9 mph 29.9 mph N/A   Scattered Clouds
10:53 PM 36.0 °F 24.2 °F 28.9 °F 76% 29.73 in 10.0 mi SW 24.2 mph 33.4 mph N/A   Mostly Cloudy
11:53 PM 34.0 °F 22.4 °F 28.9 °F 82% 29.78 in 10.0 mi SSW 20.7 mph 27.6 mph N/A   Mostly Cloudy